Location: Brown Observing Site
(43.4354°N, 116.3366°W)
Time: 12:52:49
(UTC-06:00)

Envisat - Pass Details

Date: 30 March 2019
Orbit: 764 x 766 km, 98.1° (Epoch: 22 October)

Event Time Altitude Azimuth Distance (km) Brightness Sun altitude
Rises 21:00:18 0° 189° (S) 3,213 6.2 -9.9°
Reaches altitude 10° 21:02:46 10° 198° (SSW) 2,292 5.5 -10.3°
Maximum altitude 21:07:23 35° 264° (W) 1,218 4.7 -11.1°
Drops below altitude 10° 21:12:01 10° 329° (NNW) 2,309 6.2 -11.9°
Sets 21:14:32 0° 339° (NNW) 3,240 6.8 -12.3°
